Location: Newark
(7.0858°N, 171.3717°E)
Time: 01:39:15
(UTC+00:00)

Transit 4A - Pass Details

Date: 26 November 2020
Orbit: 864 x 980 km, 66.8° (Epoch: 20 January)

Event Time Altitude Azimuth Distance (km) Brightness Sun altitude
Rises 19:14:23 0° 189° (S) 3,529 11.1 9.5°
Reaches altitude 10° 19:16:55 10° 184° (S) 2,605 10.6 10.1°
Maximum altitude 19:22:48 52° 109° (ESE) 1,149 9.4 11.4°
Drops below altitude 10° 19:28:50 10° 34° (NNE) 2,678 10.5 12.8°
Sets 19:31:28 0° 29° (NNE) 3,637 11.1 13.4°
